Location: Cortada de Papelón
(10.0378°N, 66.9528°W)
Time: 13:28:46
(UTC+00:00)

Daily predictions for brighter satellites

Satellite Brightness Start Highest point End
(mag) Time Altitude Azimuth Time Altitude Azimuth Time Altitude Azimuth
Centaur D-1AR AC-36 4.5 22:51:24 10° NW 22:57:09 51° NNE 23:46:02 10° E
Cosmos 1452 Rocket 4.3 23:03:44 10° NNW 23:08:51 57° WSW 23:13:59 10° S
Cosmos 1331 Rocket 4.5 23:03:49 10° NNW 23:08:53 64° WSW 23:13:57 10° S
Helios 1B rocket 3.0 23:06:12 10° S 23:10:01 56° WSW 23:13:48 10° NNW
Meteor 1-31 Rocket 4.2 23:07:08 10° S 23:10:34 38° W 23:13:59 10° NNW
Delta 202 4.4 23:06:14 10° WNW 23:12:06 47° N 23:17:10 10° E
Sylda 5 4.0 23:06:03 10° WSW 23:13:15 26° S 23:16:38 10° SE
Cosmos 1536 3.6 23:10:24 10° NNE 23:13:56 32° E 23:17:29 10° SSE
Okean 1 4.5 23:12:14 10° SSW 23:15:57 46° W 23:19:41 10° N
Lacrosse 4 Rocket 1.7 23:12:02 10° N 23:16:09 50° ENE 23:20:19 10° SE
H-2A R/B 1.9 23:10:39 10° WNW 23:17:52 86° SSW 23:21:35 10° SE
CZ-4 R/B 3.4 23:18:43 10° E 23:19:16 10° ENE 23:19:50 10° ENE
ASTRO E2 3.7 23:18:36 10° WSW 23:21:53 41° NNW 23:25:11 10° NE
Cosmos 1302 Rocket 4.0 23:18:54 10° N 23:24:05 66° ENE 23:29:18 10° SSE
Cosmos 1151 Rocket 3.0 23:20:02 10° S 23:24:19 67° E 23:28:34 10° N
NOAA 6 4.2 23:20:24 10° S 23:25:31 77° WSW 23:30:39 10° NNW
USA 234 3.3 23:19:23 10° NE 23:25:56 89° WNW 23:32:28 10° SW
Ariane 44P Rocket 3.9 23:25:48 10° S 23:26:08 10° SSE 23:26:30 10° SSE
Cosmos 1726 2.0 23:24:13 10° N 23:27:13 66° W 23:30:14 10° S
YAOGAN 3 4.5 23:25:48 10° SSE 23:30:04 73° ENE 23:34:20 10° N
Nadezhda 4 Rocket 4.0 23:24:57 10° S 23:31:06 67° E 23:37:20 10° N
Meteor 1-11 Rocket 3.9 23:29:16 10° N 23:35:08 61° E 23:40:59 10° SSE
Okean 3 Rocket 4.2 23:32:11 10° NNW 23:36:29 58° W 23:40:51 10° S
YAOGAN 1 2.5 23:32:53 10° SSE 23:37:09 90° S 23:41:26 10° NNW
MAQSAT/ARIANE V 3.9 15:35:17 10° W 23:38:19 57° SSW 23:42:07 17° ESE
Cosmos 2082 Rocket 2.2 23:34:29 10° SSW 23:40:11 80° ESE 23:45:54 10° NNE
Cosmos 1500 Rocket 3.7 23:38:00 10° N 23:42:14 51° E 23:46:17 11° SSE
Meteor PRIRODA 3.4 23:39:12 12° SSE 23:42:14 58° E 23:45:32 10° N
Ariane H10 3.4 23:38:08 10° W 23:44:19 34° SSW 23:45:57 20° SE
Cosmos 2251 Rocket 3.4 23:40:45 10° S 23:45:58 85° ESE 23:51:14 10° NNE
Landsat 7 3.9 23:42:46 10° S 23:47:27 79° WSW 23:52:08 10° NNW
Cosmos 1340 2.3 23:46:11 10° N 23:49:30 63° E 23:51:37 20° SSE
Delta 128 4.3 23:46:17 10° SW 23:51:44 60° SSE 23:58:13 10° ENE
ADEOS 3.5 23:47:24 10° SSE 23:52:37 79° ENE 23:57:48 10° N
Cosmos 2279 Rocket 4.1 23:46:56 10° N 23:53:10 84° W 23:59:25 10° S
Hubble Space Telescope 3.1 23:53:59 10° WSW 23:55:49 13° SSW 23:57:39 10° S
